Starlink 11197

operational
NORAD ID: 60186 Int'l Des: 2024-124 Owner: SPXS Country: US Constellation: starlink
LEOCIRCULAR

About Starlink 11197

Description loading...

Live Position

Loading 3D Globe...

Upcoming Passes

Altitude History

Altitude vs Time

uPlot chart will show altitude changes over time

Two-Line Element Set

1 60186U 24124D 25303.71599476 .00055544 00000-0 45928-3 0 9999
2 60186 53.1557 81.7317 0000566 119.8198 240.2876 15.69760993 76120
Epoch: Oct 30, 2025 • Age: 15 hours

Current Status

Altitude 378.0 km
Velocity 7.68 km/s
Sub-Earth Point -52.74°S, 176.4°E
Launch Date Jul 3, 2024
Age 1.3 years
Type internet

Technical Details

Classification Payload
Mass 960.00 kg
Dry Mass 910.00 kg
Total Mass 960.00 kg
Length 0.30 m
Diameter 4.10 m
Span 29.00 m
Shape Box + pan
Manufacturer SPXS
Bus Type Starlink V2MD
Phase Status In Orbit
Owner/State SPXS/US

Large Constellations

Loading constellations...